Regional Weather Roundup
Issued by NWS

Home | Current Version | Previous Version | Graphics & Text | Print | Product List | Glossary On
Versions: 1 2 3 4 5 6 7 8 9 10 11 12 13 14 15 16 17 18 19 20 21 22 23 24 25 26 27 28 29 30 31 32 33 34 35 36 37 38 39 40 41 42 43 44 45 46 47 48 49 50
000
ASUS45 KTFX 300810
RWRMT
MONTANA REGIONAL WEATHER ROUNDUP
NATIONAL WEATHER SERVICE GREAT FALLS MT
200 AM MDT TUE JUN 30 2015

NOTE: "FAIR" INDICATES FEW OR NO CLOUDS BELOW 12000 FEET WITH NO
SIGNIFICANT WEATHER AND/OR OBSTRUCTIONS TO VISIBILITY.

MTZ001>007-043-300900-
WEST OF THE DIVIDE

CITY           SKY/WX    TMP DP  RH WIND       PRES   REMARKS
KALISPELL      MOSUNNY   74  53  48 VRB5      30.00R
MISSOULA       MOCLDY    70  62  76 S7        30.05R
BUTTE          PTCLDY    58  54  86 N6        30.20R
MULLAN PASS    CLEAR     65  51  60 NW7       30.21S
DEER LODGE       N/A     63  61  94 CALM      30.17S
EUREKA           N/A     61  59  94 CALM      30.03S
HAMILTON         N/A     68  63  83 S9        30.08S
RONAN            N/A     68  60  75 N3        30.05R
$$

MTZ008-052>055-300900-
SOUTHWEST MONTANA

CITY           SKY/WX    TMP DP  RH WIND       PRES   REMARKS
BOZEMAN        PTCLDY    61  55  81 CALM      30.11S
DILLON         PTCLDY    62  56  80 S7        30.15R
W YELLOWSTONE  MOCLDY    57  54  88 CALM      30.27F
THREE FORKS      N/A     60  60 100 CALM      30.08F
TWIN BRIDGES     N/A     62  53  72 SE3       30.11S
$$

MTZ009-010-012-014-046-048-049-054-300900-
EAST SLOPES AND CENTRAL MONTANA

CITY           SKY/WX    TMP DP  RH WIND       PRES   REMARKS
CUT BANK       PTCLDY    62  57  83 NW12      29.99F
GREAT FALLS    LGT RAIN  68  61  78 S10       30.00F
MALMSTROM AFB  LGT RAIN  70  61  73 S9        29.99F
HELENA         CLOUDY    68  61  78 CALM      30.07R
CONRAD           N/A     64  64 100 S5        30.01F
$$

MTZ011-013-016-021-045-047-050-051-300900-
NORTH CENTRAL MONTANA

CITY           SKY/WX    TMP DP  RH WIND       PRES   REMARKS
HAVRE          MOCLDY    71  48  43 E9        29.92F HAZE
LEWISTOWN      CLOUDY    69  57  65 E10       30.02
CHINOOK          N/A     72  46  40 E7        29.93F
FORT BENTON      N/A     72  63  73 SW8       29.97R
$$

MTZ017>020-022>027-061-062-300900-
NORTHEAST MONTANA

CITY           SKY/WX    TMP DP  RH WIND       PRES   REMARKS
JORDAN           N/A     70  47  43 NE7       29.96F
SIDNEY         CLOUDY    70  55  60 NW3       29.96F
WOLF POINT     CLOUDY    70  50  49 NE6       29.97S HAZE
MALTA            N/A     71  43  36 NE2       29.94F
PLENTYWOOD       N/A     66  52  59 NE6       29.97F
POPLAR           N/A     66  54  63 NW6       29.97S
SCOBEY           N/A     67  45  45 NE2       29.99S
$$

MTZ028>42-056>058-300900-
SOUTHCENTRAL AND SOUTHEAST MONTANA

CITY           SKY/WX    TMP DP  RH WIND       PRES   REMARKS
BAKER          MOCLDY    72  62  71 NE12      29.97F
BILLINGS       CLOUDY    73  57  57 W8        30.03F
LIVINGSTON     PTCLDY    63  58  83 W9        30.10F
MILES CITY     CLOUDY    73  58  59 NE8       29.95F
BIG TIMBER       N/A     64  57  77 SW12      30.08F
FORSYTH          N/A     75  52  43 CALM      29.93S
LAUREL           N/A     70  55  58 CALM      30.03F
ROUNDUP          N/A     74  55  51 CALM      29.93F
$$

REGIONAL REPORTS...DAKOTAS

CITY           SKY/WX    TMP DP  RH WIND       PRES   REMARKS
WILLISTON      CLOUDY    70  57  63 CALM      29.97S HAZE
MINOT          CLOUDY    67  62  84 E7        29.94R
DICKINSON      CLOUDY    68  61  78 NE5       29.93F
BEACH          PTSUNNY   66  64  94 W3        29.99R
CROSBY         FAIR      63  63 100 CALM      29.98S FOG
BISMARCK       CLOUDY    69  65  86 SE3       29.94S
GRAND FORKS    PTCLDY    56  55  97 NW5       29.94S FOG
FARGO          PTCLDY    60  57  89 NE5       29.93S
BUFFALO SD       N/A     68  59  73 CALM      29.90F
RAPID CITY     CLEAR     71  56  58 SW9       29.99F
$$

REGIONAL REPORTS...WYOMING/IDAHO/WASHINGTON

CITY           SKY/WX    TMP DP  RH WIND       PRES   REMARKS
GILLETTE       CLOUDY    73  53  49 S14       30.08S
SHERIDAN       CLOUDY    68  55  63 SW7       30.07F
BUFFALO WY     CLOUDY    71  52  50 NW10      30.15F
CODY           CLOUDY    72  52  49 S16       30.15F
YELLOWSTONE LA   N/A     56  50  80 NW5       30.40F
IDAHO FALLS    CLOUDY    63  57  81 CALM      30.13F
SALMON         CLEAR     63  59  88 CALM      30.09R
BOISE          MOCLDY    86  54  33 SE3       29.95R
SPOKANE        PTCLDY    75  56  51 N6        29.98R
$$

REGIONAL REPORTS...ALBERTA

CITY           SKY/WX    TMP DP  RH WIND       PRES   REMARKS
EDMONTON       CLOUDY    61  55  82 NE7       29.99F
CALGARY        MOCLDY    63  57  82 CALM      29.94F
LETHBRIDGE     CLOUDY    63  61  94 SE3       29.96F
MEDICINE HAT   CLOUDY    70  43  37 E10G18    29.89F HAZE
WATERTON GATE    N/A     63  52  67 S6          N/A
CARDSTON         N/A     59  59 100 SW5         N/A
ONEFOUR          N/A     68  39  34 E15G26      N/A
$$

REGIONAL REPORTS...SASKATCHEWAN

CITY           SKY/WX    TMP DP  RH WIND       PRES   REMARKS
SWIFT CURRENT  CLOUDY    63  52  67 SE7       30.00S HAZE
REGINA         LGT RAIN  61  59  94 VRB2      30.00S SMOKE
SASKATOON      CLOUDY    61  57  88 CALM      30.01R SMOKE
CYPRESS HILLS    N/A     59  41  51 SE12G17     N/A
VAL MARIE        N/A     64  48  55 SE10        N/A
ASSINIBOIA       N/A     63  59  88 SE5         N/A
$$


USA.gov is the U.S. government's official web portal to all federal, state and local government web resources and services.